RH
60 62 51 71 77 81 81 81 90 88 84 73 49 72 98 100 99 99 98 97 95 97 98 94 97 96 97 98 99 100 100 99 99 100 100 75 72 85 100 97 92 89 88
58 55 54 62 70 76 81 76 84 87 87 77 78 50 91 100 100 99 99 98 99 99 100 94 96 96 96 99 99 99 100 100 100 100 100 78 80 85 99 99 86 86 87
53 49 55 64 66 70 78 78 79 83 84 72 70 30 90 100 100 100 100 99 100 100 100 100 98 98 96 100 100 99 99 100 100 97 100 86 93 100 100 100 100 97 85
49 50 60 66 66 72 73 74 73 76 74 58 50 21 79 100 100 100 100 100 100 100 100 99 98 97 99 99 100 99 100 100 100 100 98 99 99 100 100 100 92 99 99
43 56 62 64 65 73 66 71 68 70 66 51 33 15 32 95 99 98 100 100 91 87 100 100 98 97 98 98 100 99 99 99 99 100 100 100 99 100 99 99 91 92 93
48 58 61 60 63 70 57 69 70 71 71 57 32 18 11 62 98 98 95 98 87 86 88 99 100 99 99 97 99 99 100 99 99 100 100 99 100 100 100 99 88 96 93
47 53 60 59 56 59 61 62 69 73 76 64 50 24 13 22 74 69 60 68 72 80 89 88 95 100 99 95 97 100 100 98 99 100 100 98 100 99 100 100 99 100 99
43 46 56 56 46 49 57 64 63 75 79 71 55 30 17 14 23 30 34 50 59 69 86 94 89 96 100 97 98 98 99 99 99 100 100 98 100 98 99 100 100 99 100
38 37 45 46 44 43 58 66 62 69 75 65 44 24 18 17 16 18 19 30 43 54 73 97 89 86 96 97 96 98 100 100 100 100 99 100 100 100 100 100 99 100 99
33 31 36 42 42 47 51 61 56 57 56 49 30 20 18 17 17 17 20 22 26 34 50 67 83 85 79 87 91 96 94 98 100 100 100 100 100 100 99 95 94 93 91
29 27 35 45 38 34 36 39 38 38 33 34 24 20 18 18 17 21 19 19 29 28 32 43 59 70 74 81 85 93 99 98 98 96 98 98 100 99 99 100 100 97 94
31 25 27 32 31 25 20 22 22 24 21 21 20 19 19 20 19 20 20 20 25 21 30 32 37 38 56 69 74 74 72 79 89 89 91 93 95 97 99 100 100 100 100
33 31 34 31 20 20 17 17 17 17 17 16 17 18 18 22 23 24 20 20 22 20 22 22 19 17 19 36 49 58 63 65 70 74 88 96 98 99 100 98 100 100 100
36 34 29 34 19 17 17 17 16 15 15 15 16 16 17 17 19 20 19 19 20 18 17 14 13 13 11 12 13 22 34 45 55 67 76 79 78 80 92 95 97 99 97
39 42 38 40 42 28 20 17 17 15 15 15 15 15 15 15 18 19 18 17 16 16 14 14 13 12 12 12 14 13 13 12 15 19 27 33 52 67 69 71 76 82 89
36 39 38 35 40 33 28 21 17 16 16 16 15 14 15 16 16 15 16 16 15 13 11 12 13 14 13 14 14 16 14 13 13 12 11 10 11 18 36 51 61 65 77
31 40 38 36 33 25 22 20 20 18 16 15 15 15 14 14 14 13 13 12 12 10 10 13 13 14 15 16 15 14 16 17 14 12 12 12 11 10 11 15 16 23 45
35 44 28 29 31 23 19 18 18 18 17 16 16 16 15 14 12 13 12 11 9 10 10 11 12 14 14 15 14 15 14 14 14 14 14 13 13 13 13 13 13 13 15
38 38 25 28 24 20 19 19 18 18 17 17 17 17 15 14 12 11 10 8 9 10 11 11 12 11 12 13 14 13 13 11 10 10 9 8 7 6 6 7 9 11 12
32 28 21 20 18 18 18 18 18 18 18 18 18 17 16 14 13 11 10 9 8 9 10 10 12 11 11 10 10 9 8 7 6 6 6 6 5 5 6 5 5 5 6
24 24 21 19 17 17 17 18 19 19 19 20 20 19 18 16 15 14 11 10 9 9 8 9 9 10 10 10 9 7 6 6 5 5 6 6 6 6 6 6 6 6 6
24 25 23 20 18 16 17 18 19 20 20 21 22 21 21 20 18 17 16 13 12 10 9 9 9 9 9 8 7 7 6 6 6 6 6 6 6 6 6 6 6 6 6
24 26 26 23 21 20 18 18 18 20 21 22 23 24 23 23 21 20 19 17 15 13 11 10 9 8 8 8 8 7 6 6 6 7 6 6 6 6 7 7 7 8 8
26 26 27 26 24 23 21 19 18 19 21 21 22 24 25 25 25 24 23 22 20 18 15 13 12 10 9 8 8 8 7 6 7 7 7 6 7 8 8 8 8 9 9
30 26 27 28 26 25 24 23 21 21 20 20 23 24 24 25 26 27 26 26 25 24 21 18 16 14 12 10 9 8 9 9 8 8 8 8 8 8 9 9 10 10 10
37 31 28 30 31 29 28 28 27 26 24 24 22 23 24 25 26 27 28 28 29 28 27 25 22 20 18 16 13 12 11 11 10 11 11 11 11 12 12 12 14 14 14
Wind_Speed
15 17 15 15 15 17 20 20 24 29 33 37 41 36 30 30 29 29 29 29 27 27 29 25 28 30 31 26 20 18 18 17 20 23 18 19 11 9 17 38 53 53 53
14 16 14 16 15 17 19 22 20 25 30 32 36 38 32 31 31 31 32 33 28 28 28 26 29 32 34 29 24 21 19 19 20 24 20 15 17 12 18 51 52 49 51
13 14 15 17 17 19 19 21 21 22 25 27 31 36 31 31 33 32 33 33 29 29 28 27 28 32 35 33 29 23 21 21 25 28 25 17 8 12 17 31 42 44 48
11 13 15 16 17 18 18 19 21 21 24 25 27 32 28 30 31 33 33 33 35 33 31 27 27 28 32 34 33 27 23 24 27 30 30 23 19 16 18 22 21 22 39
10 13 14 14 15 16 17 19 21 23 25 27 26 31 29 28 28 31 33 33 39 37 35 32 28 25 28 32 34 31 25 27 29 30 31 27 27 24 20 20 23 28 26
9 11 11 13 14 15 17 18 21 22 25 26 30 31 32 26 22 25 29 32 36 41 39 35 32 28 28 31 33 32 30 29 31 32 30 28 25 23 25 21 17 23 20
8 9 10 12 13 14 16 17 19 21 22 26 28 30 31 29 22 24 27 31 34 37 41 38 34 31 29 30 31 30 31 31 32 32 31 27 24 22 23 25 20 31 22
7 8 9 11 13 14 16 17 18 19 20 24 25 28 29 29 24 25 28 30 32 35 38 39 35 32 30 30 31 31 32 31 33 33 32 27 22 20 21 24 24 17 13
5 7 8 10 13 14 16 16 17 16 17 21 23 26 28 27 26 25 28 30 31 34 35 36 36 33 29 28 30 33 32 32 30 31 30 27 22 19 17 22 17 19 24
5 7 9 11 12 14 13 14 14 14 16 17 21 24 26 26 26 26 27 30 30 32 33 35 34 33 31 29 31 32 35 35 31 30 31 31 32 29 24 21 19 21 17
5 6 7 8 9 11 11 12 13 14 16 17 19 22 25 25 25 26 27 30 29 30 32 34 33 31 31 32 32 33 34 33 34 34 34 33 34 35 34 31 27 25 22
5 6 7 6 7 11 12 12 13 15 17 18 19 22 25 26 26 26 26 27 27 28 30 30 29 29 30 32 35 34 33 35 37 38 37 37 36 34 33 35 33 29 27
6 5 6 6 8 10 11 12 13 15 17 19 20 21 23 23 26 25 25 26 25 26 27 28 28 29 30 32 34 35 37 39 40 41 40 38 35 31 28 29 32 31 26
7 5 3 6 7 9 10 12 13 15 17 18 20 21 21 22 25 25 25 25 24 25 26 27 29 31 32 33 34 37 38 39 40 41 39 36 33 32 31 31 31 31 32
8 7 4 4 4 6 8 10 12 14 16 18 19 20 21 22 24 23 23 24 24 24 25 28 30 32 34 36 36 37 38 37 39 39 38 38 37 36 36 34 34 34 35
10 8 5 3 2 4 6 8 9 12 14 16 17 19 20 20 19 18 19 20 21 21 25 29 31 32 34 34 35 35 36 36 36 37 37 38 39 38 36 36 35 36 37
9 8 6 4 2 0 3 6 7 9 10 12 13 15 16 17 17 17 17 17 18 20 26 28 29 30 30 30 31 31 32 33 32 34 35 36 37 37 37 37 36 35 35
10 8 8 6 4 2 2 5 5 6 6 8 10 11 13 14 15 15 15 12 16 21 23 24 25 25 26 26 27 27 27 28 30 31 31 32 33 35 35 36 35 34 34
11 9 8 6 4 3 2 1 1 3 5 6 8 8 8 10 11 13 13 15 18 19 19 20 21 21 23 24 24 24 25 25 26 28 28 29 31 31 33 32 31 31 31
13 11 8 6 7 5 4 3 2 1 2 3 4 5 6 7 8 10 11 13 14 15 16 16 17 18 18 19 20 20 21 23 24 27 28 28 29 30 31 31 31 31 32
12 11 10 10 9 7 6 5 4 3 1 1 1 3 4 4 5 6 8 10 10 11 12 12 13 14 15 16 17 18 19 20 21 23 24 25 26 28 28 28 28 29 28
12 11 11 10 9 9 8 6 6 5 4 1 2 2 3 4 4 4 5 6 7 7 8 8 9 10 11 12 14 15 16 17 18 18 19 21 22 23 24 24 25 26 27
12 12 12 11 11 10 9 8 7 7 6 4 4 4 4 3 3 2 2 3 3 4 4 4 5 6 7 8 9 10 11 12 13 14 14 17 17 18 18 19 21 21 22
13 13 12 13 12 11 10 9 9 8 7 7 6 6 6 5 6 4 4 3 3 3 2 1 1 2 3 4 5 5 6 7 8 9 10 10 12 13 13 15 16 17 18
15 15 14 14 13 12 11 11 11 10 9 9 9 9 8 8 8 7 6 6 6 5 5 4 4 3 2 1 0 1 1 2 3 4 5 6 7 9 10 11 13 14 15
17 16 15 15 14 14 13 12 12 12 11 10 10 11 12 11 10 10 9 9 9 8 8 8 7 7 6 6 5 4 4 4 3 3 3 4 5 6 7 8 10 11 13
Wind_Direction
7 3 14 23 24 22 19 21 13 12 17 21 25 23 27 33 29 30 25 25 24 23 25 30 33 35 32 34 39 48 57 72 74 70 94 160 185 233 198 182 191 194 198
2 7 25 26 27 25 23 21 24 16 15 18 22 21 26 34 31 33 29 29 22 23 28 33 34 36 34 37 43 54 61 67 75 80 103 168 221 268 133 180 187 192 196
2 16 34 28 29 29 30 20 26 23 16 16 24 21 26 33 32 33 29 30 27 32 35 37 35 38 33 38 45 56 61 68 85 94 96 116 157 150 129 139 184 190 195
9 27 38 27 30 31 29 24 26 26 20 22 30 25 30 34 34 32 29 32 33 38 41 43 40 40 40 39 46 52 63 71 84 88 102 104 111 123 154 147 165 160 191
26 39 40 30 32 33 28 30 30 29 25 28 32 31 34 37 33 32 27 34 37 38 43 47 48 48 49 49 48 51 60 68 75 82 91 89 91 101 125 145 179 200 179
43 45 42 33 37 33 35 36 34 30 25 27 33 33 35 40 38 40 29 34 39 40 40 45 49 51 51 55 57 56 57 62 65 71 76 77 75 80 91 116 169 189 186
51 54 45 36 42 38 41 37 38 34 23 24 29 34 37 41 41 41 42 40 42 42 42 41 49 52 54 57 59 62 63 62 63 64 68 68 70 76 86 98 130 171 184
60 59 53 39 45 47 45 41 38 38 25 21 26 33 38 41 43 44 46 48 47 46 46 41 46 50 55 58 63 64 65 64 62 64 65 62 69 83 83 96 107 105 141
75 61 57 44 48 50 49 42 36 40 30 25 25 34 39 41 42 47 49 51 50 50 49 48 47 50 54 60 65 68 71 73 75 75 74 73 79 88 92 94 103 93 76
89 69 65 49 47 48 49 44 40 39 36 31 34 36 41 43 44 45 48 53 52 53 53 53 53 55 58 59 62 66 68 67 74 80 81 73 73 80 84 85 83 78 80
110 85 82 55 46 43 43 43 46 46 47 44 42 41 43 45 47 48 46 51 53 54 54 53 53 57 62 64 65 68 72 75 76 77 76 75 70 68 69 69 71 71 67
130 95 95 78 55 52 47 45 47 53 56 57 54 50 48 49 51 51 51 52 55 57 58 58 59 60 63 68 68 69 71 73 74 74 73 69 68 67 67 70 71 69 70
149 120 96 78 57 59 58 58 56 57 59 60 59 57 54 54 57 58 55 55 56 60 63 65 67 66 65 67 69 70 70 70 69 68 67 67 69 73 76 75 75 78 78
158 138 118 84 64 65 62 63 59 60 61 61 61 59 57 55 55 56 59 59 62 65 68 67 67 69 68 68 68 66 67 68 68 69 71 72 74 73 73 73 72 73 77
167 151 149 115 72 63 62 64 60 59 60 60 59 60 57 54 51 50 52 56 57 63 70 71 69 68 67 66 67 67 66 67 69 70 70 69 69 70 70 70 74 71 69
178 181 180 153 101 61 54 57 58 57 57 57 54 53 52 55 52 50 54 56 58 61 63 64 66 64 64 63 63 65 67 66 67 69 69 67 67 68 67 67 68 68 68
193 181 180 202 204 190 59 57 56 60 57 58 56 55 54 53 55 53 50 53 58 60 63 63 61 61 63 64 64 63 66 67 67 67 68 68 67 65 65 63 64 67 65
192 195 210 200 204 266 17 45 52 58 59 64 60 56 52 48 50 52 56 56 63 63 62 63 64 65 64 65 66 65 66 69 68 68 68 67 65 64 64 63 61 61 64
204 204 210 205 217 190 177 200 25 43 57 62 63 55 51 50 47 47 48 52 58 63 64 66 65 65 64 63 62 62 63 63 68 69 67 67 67 67 66 65 63 63 62
207 221 222 219 220 224 216 214 218 45 45 60 63 58 53 47 48 46 45 48 54 59 62 64 65 67 68 67 65 62 63 64 66 70 69 69 68 66 65 63 63 60 59
210 214 213 218 221 221 222 220 230 246 288 47 21 30 33 40 39 45 47 49 49 55 61 62 63 62 63 66 69 69 69 70 69 69 70 67 66 66 66 65 61 60 58
212 219 221 220 226 228 231 233 237 247 263 271 295 322 339 353 13 25 31 41 46 54 57 59 61 62 62 63 65 68 71 73 73 71 70 69 65 63 61 57 57 54 53
216 222 226 225 227 230 230 235 241 248 258 271 266 279 292 303 317 324 338 9 23 37 52 57 56 59 63 67 68 71 76 76 72 66 61 65 61 58 55 54 52 50 46
223 226 230 232 233 235 236 239 242 245 250 257 262 258 270 281 289 293 291 298 308 322 338 344 7 41 50 61 67 70 72 71 66 64 59 52 54 51 46 43 42 38 37
229 228 230 232 235 236 235 239 244 242 247 254 259 268 270 272 276 280 280 279 279 282 287 289 285 279 280 294 344 37 41 46 47 40 34 26 24 29 26 25 24 23 21
234 235 235 235 236 238 240 241 245 250 252 255 257 260 268 272 271 274 275 272 271 268 269 272 272 272 272 272 271 270 271 276 288 303 314 331 341 350 355 0 4 4 5